#timestamp,LO_Frequency,Hit,StdDev 
1544238017.1,286046991.3,N
1544238035.1,286046988.7,N
1544238055.9,286046992.3,N
1544238075.7,286046990.8,N
1544238095.5,286046991.5,N
1544238115.4,286046991.3,N
1544238135.2,286046990.5,N
1544238155.1,286046991.7,N
1544238156.0,286046991.7,N
1544238175.8,286046990.5,N
1544238195.6,286046989.1,N
1544238215.5,286046989.4,N
1544238235.3,286046991.6,N
1544238255.1,286046994.4,N
1544238275.9,286046990.6,N
1544238295.7,286046988.5,N
1544238315.6,286046989.8,N
1544238335.4,286046989.8,N
1544238355.2,286046989.8,Y
1544238375.1,286046995.3,P
1544238376.0,286046995.3,P
1544238395.8,286046995.2,P
1544238415.7,286046998.0,N
1544238435.5,286046999.5,N
1544238455.3,286046998.3,N
1544238475.2,286046997.3,N
1544238495.0,286046995.6,N
1544238495.9,286046995.6,N
1544238515.8,286046993.5,Y
1544238535.6,286046997.2,P
1544238555.4,286046997.8,P
1544238575.3,286046995.6,P
1544238595.1,286046995.8,Y
1544238615.8,286046999.5,P
1544238635.7,286046998.8,N
1544238655.6,286047000.3,N
1544238675.4,286047002.3,N
1544238695.3,286046999.7,N
1544238715.1,286047000.4,N
1544238716.0,286047000.4,N
1544238735.8,286047000.1,N
1544238755.7,286047002.4,N
1544238775.5,286046999.8,N
1544238795.3,286047001.4,N
1544238815.2,286047004.4,N
1544238835.0,286047005.6,Y
1544238835.9,286047005.6,P
1544238855.8,286047003.8,N
1544238875.6,286047004.4,N
1544238895.5,286047001.8,N
1544238915.3,286047002.4,N
1544238935.1,286047001.5,N
1544238955.9,286047001.4,N
1544238975.7,286047002.2,N
1544238995.6,286047000.1,N
1544239015.4,286047000.8,N
1544239035.2,286046998.4,N
1544239055.1,286046999.5,N
1544239056.0,286046999.5,N
1544239075.8,286046999.5,N
1544239095.6,286046996.9,N
1544239115.5,286046996.9,N
1544239135.3,286046999.5,N
1544239155.2,286046998.6,N
1544239175.9,286046998.3,N
1544239195.7,286046999.0,N
1544239215.6,286046998.5,N
1544239235.4,286046998.8,N
1544239255.2,286047000.4,N
1544239275.1,286047002.4,N
1544239276.0,286047002.4,N
1544239295.8,286046999.9,N
1544239315.7,286046998.2,N
1544239335.5,286047000.9,N
1544239355.3,286047000.3,N
1544239375.2,286047000.7,N
1544239395.0,286046998.2,N
1544239395.9,286046998.2,N
1544239415.7,286046998.2,N
1544239435.6,286046999.0,N
1544239485.5,286047000.8,E
1544239495.4,286047000.8,N
1544239515.2,286047001.2,P
1544239535.1,286046998.8,P
1544239536.0,286046998.8,N
1544239555.8,286047001.0,N
1544239575.6,286046998.6,N
1544239595.5,286046999.1,N
1544239615.3,286046996.9,N
1544239635.1,286046997.8,N
1544239655.9,286046999.2,N
1544239675.7,286046997.8,N
1544239695.6,286046996.8,N
1544239715.4,286046997.3,N
1544239735.2,286046997.0,N
1544239755.1,286046997.6,N
1544239756.0,286046997.6,N
1544239775.8,286046996.8,N
1544239795.6,286046996.8,N
1544239815.5,286046997.0,N
1544239835.3,286046997.1,N
1544239855.2,286046997.8,N
1544239875.9,286046997.8,N
1544239895.7,286046997.2,N
1544239915.6,286046999.1,N
1544239935.4,286046999.0,N
1544239955.2,286046999.1,N
1544239975.1,286046996.5,N
1544239976.0,286046996.5,N
1544239995.8,286046999.6,N
1544240015.7,286046999.5,N
1544240035.5,286046996.8,N
1544240055.3,286046996.5,N
1544240075.2,286046999.0,N
1544240095.0,286047000.6,N
1544240095.9,286047000.6,N
1544240115.8,286047000.9,N
1544240135.6,286046998.6,N
1544240155.4,286046998.1,N
1544240175.3,286047000.9,N
1544240195.1,286047002.7,N
1544240215.8,286047000.0,N
1544240235.7,286046998.3,N
1544240255.5,286047001.2,N
1544240275.4,286047000.2,N
1544240295.2,286046998.2,N
1544240315.0,286046999.1,N
1544240315.9,286046999.1,N
1544240335.8,286046999.1,N
1544240355.6,286046999.1,N
1544240375.4,286046996.8,N
1544240395.3,286046997.4,N
1544240415.1,286046996.8,N
1544240435.9,286046996.7,N
1544240455.7,286046997.7,N
1544240475.5,286046996.5,N
1544240495.4,286046999.3,N
1544240515.2,286046999.1,N
1544240535.1,286046999.2,N
1544240536.0,286046999.2,N
1544240555.8,286046999.3,N
1544240575.6,286046997.1,N
1544240595.5,286046997.7,N
1544240615.3,286046997.5,N
1544240635.2,286046998.0,N
1544240655.9,286046997.4,N
1544240675.7,286046996.7,N
1544240695.1,286046997.4,N
1544240696.0,286046997.4,N
1544240715.8,286046997.4,N
1544240735.7,286046999.3,N
1544240755.5,286047000.4,N
1544240775.3,286047002.0,N
1544240795.2,286047000.2,N
1544240815.0,286047000.5,N
1544240815.9,286047000.5,N
1544240835.8,286046998.3,N
1544240855.6,286046999.3,N
1544240875.4,286046999.6,N
1544240895.3,286046999.0,N
1544240915.1,286046998.4,N
1544240935.9,286046999.0,N
1544240955.7,286046997.0,N
1544240975.5,286046996.9,N
1544240995.4,286046998.9,N
1544241015.2,286046997.0,N
1544241035.0,286046996.7,N
1544241035.9,286046996.7,N
1544241055.8,286046997.5,N
1544241075.6,286046998.0,N
1544241095.5,286046997.2,N
1544241115.3,286046994.9,Y
1544241135.2,286046999.5,P
1544241155.9,286046999.0,N
1544241175.7,286046998.9,N
1544241195.6,286046998.8,N
1544241215.4,286046998.5,Y
1544241235.2,286047001.6,P
1544241255.1,286047005.9,P
1544241256.0,286047005.9,N
1544241275.8,286047004.4,N
1544241295.7,286047002.3,N
1544241315.5,286047000.3,N
1544241335.3,286047000.3,N
1544241355.2,286047000.1,N
1544241375.0,286047002.3,N
1544241375.9,286047002.3,N
1544241395.7,286047000.9,N
1544241415.6,286046998.7,N
1544241435.4,286046998.1,N
1544241455.3,286047001.0,N
1544241475.1,286047000.0,N
1544241495.8,286047000.6,N
1544241515.7,286046998.5,N
1544241535.5,286046998.6,N
1544241555.4,286046998.5,N
1544241575.2,286047001.1,N
1544241595.0,286047000.7,N
1544241596.0,286047000.7,N
